Location: Demre
(36.2444°N, 29.9850°E)
Time: 04:25:00
(UTC+00:00)

Meteor 1-27 Rocket - Pass Details

Date: 11 March 2026
Orbit: 830 x 907 km, 81.3° (Epoch: 21 April)

Event Time Altitude Azimuth Distance (km) Brightness Sun altitude
Rises 17:21:39 0° 350° (N) 3,517 7.2 -16.5°
Reaches altitude 10° 17:24:06 10° 350° (N) 2,580 6.4 -17.0°
Maximum altitude 17:30:00 83° 264° (W) 916 3.9 -18.1°
Drops below altitude 10° 17:35:55 10° 176° (S) 2,580 6.1 -19.3°
Sets 17:38:22 0° 176° (S) 3,515 6.8 -19.8°
